Date String (YYYY-MM-DD hh:mm:ss) UTC,Instrument flags,absolute air pressure of the measurement (hPa),sample flow rate (lpm),inlet stack bypass flow (lpm),air temperature of the measurement (°C),ambient temperature measured by the external sensor (°C),aerosol sample conditioner tube jacket temperature (°C),OPC LED temperature (°C),internal box temperature (°C),relative humidity of the measurement (%),span deviation,mass concentration of particles derived from Lorenz-Mie calculation of OPC scattering (μg/m³),mass concentration of particles derived from Lorenz-Mie calculation of OPC scattering (μg/m³),mass concentration of particles derived from Lorenz-Mie calculation of OPC scattering (μg/m³)
DateTimeUTC,F1_M11,P_M11,Q1_M11,Q2_M11,T1_M11,T2_M11,T3_M11,T4_M11,T5_M11,U1_M11,ZSPAN_M11,X0_M11,X2_M11,X1_M11
2023-07-31 19:00:00,SystemResetWarning,0835.5,5.01,000.00,033.7,027.4,000.0,041.1,032.3,33.9,0000.0,0024.62,0010.44,0007.75
2023-07-31 19:01:00,SystemResetWarning,0835.5,4.98,000.00,033.7,026.2,000.0,040.9,032.2,33.4,0000.0,0024.93,0010.50,0007.75
2023-07-31 19:02:00,SystemResetWarning,0835.4,5.00,000.00,033.6,025.6,000.0,040.8,032.0,32.8,0000.0,0024.42,0010.45,0007.74
2023-07-31 19:03:00,SystemResetWarning,0835.3,5.02,000.00,033.5,025.7,000.0,040.8,031.8,34.5,0000.0,0024.55,0010.33,0007.68
2023-07-31 19:04:00,SystemResetWarning,0835.3,4.98,000.00,033.3,026.0,000.0,040.8,031.7,34.9,0000.0,0024.32,0010.30,0007.65
2023-07-31 19:05:00,SystemResetWarning,0835.2,5.01,000.00,033.1,026.5,000.0,040.9,031.8,35.9,0000.0,0024.69,0010.31,0007.66
2023-07-31 19:06:00,SystemResetWarning,0835.3,5.01,000.00,033.3,026.9,000.0,040.9,032.0,35.5,0000.0,0026.01,0010.36,0007.65
2023-07-31 19:07:00,SystemResetWarning,0835.4,4.99,000.00,033.5,027.3,000.0,040.9,032.2,33.4,0000.0,0026.41,0010.32,0007.64
2023-07-31 19:08:00,SystemResetWarning,0835.3,4.99,000.00,033.6,027.6,000.0,040.9,032.3,31.5,0000.0,0026.43,0010.24,0007.61
2023-07-31 19:09:00,SystemResetWarning,0835.3,5.00,000.00,033.7,026.9,000.0,040.8,032.2,31.7,-000.0,0026.19,0010.25,0007.60
2023-07-31 19:10:00,SystemResetWarning,0835.2,5.00,000.00,033.7,025.8,000.0,040.7,031.9,30.8,-002.7,0026.49,0010.23,0007.57
2023-07-31 19:11:00,SystemResetWarning,0835.2,5.01,000.00,033.6,025.6,000.0,040.6,031.8,30.3,-002.7,0025.98,0010.15,0007.55
2023-07-31 19:12:00,SystemResetWarning,0835.3,5.01,000.00,033.4,025.8,000.0,040.7,031.7,30.6,-002.5,0025.51,0010.03,0007.52
2023-07-31 19:13:00,SystemResetWarning,0835.3,4.99,000.00,033.3,026.3,000.0,040.8,031.7,31.8,-002.2,0026.25,0010.01,0007.54
2023-07-31 19:14:00,SystemResetWarning,0835.3,4.99,000.00,033.1,026.7,000.0,040.8,031.8,32.7,-001.6,0025.71,0010.06,0007.58
2023-07-31 19:15:00,SystemResetWarning,0835.2,5.00,000.00,033.1,027.1,000.0,040.8,031.9,33.2,-000.1,0026.00,0010.12,0007.62
2023-07-31 19:16:00,SystemResetWarning,0835.3,5.01,000.00,033.0,027.4,000.0,040.8,031.9,32.6,-000.6,0024.56,0010.11,0007.62
2023-07-31 19:17:00,SystemResetWarning,0835.3,4.99,000.00,033.0,026.8,000.0,040.7,031.9,33.4,-001.3,0023.24,0010.03,0007.61
2023-07-31 19:18:00,SystemResetWarning,0835.2,4.99,000.00,032.9,025.7,000.0,040.5,031.8,32.5,-000.3,0022.68,0009.99,0007.59
2023-07-31 19:19:00,SystemResetWarning,0835.3,5.01,000.00,032.8,025.5,000.0,040.4,031.7,32.7,0000.8,0022.27,0009.98,0007.58
2023-07-31 19:20:00,SystemResetWarning,0835.2,5.01,000.00,032.6,025.8,000.0,040.4,031.5,33.8,0001.9,0023.01,0009.93,0007.58
2023-07-31 19:21:00,SystemResetWarning,0835.2,4.99,000.00,032.5,026.2,000.0,040.4,031.5,33.9,0002.2,0022.68,0009.88,0007.59
2023-07-31 19:22:00,SystemResetWarning,0835.2,5.00,000.00,032.4,026.6,000.0,040.4,031.5,34.4,0001.7,0023.37,0009.89,0007.59
2023-07-31 19:23:00,SystemResetWarning,0835.2,5.00,000.00,032.3,027.0,000.0,040.4,031.6,34.6,0001.5,0024.91,0009.95,0007.60
2023-07-31 19:24:00,SystemResetWarning,0835.2,5.00,000.00,032.3,027.4,000.0,040.3,031.8,33.5,0000.0,0024.45,0009.98,0007.60
2023-07-31 19:25:00,SystemResetWarning,0835.2,4.99,000.00,032.2,027.4,000.0,040.3,031.8,32.6,0000.0,0024.47,0010.03,0007.60
2023-07-31 19:26:00,SystemResetWarning,0835.2,4.99,000.00,032.2,026.3,000.0,040.1,031.7,33.1,0000.0,0023.74,0009.88,0007.54
2023-07-31 19:27:00,SystemResetWarning,0835.3,5.01,000.00,032.1,025.5,000.0,039.9,031.5,33.4,0000.0,0023.48,0009.72,0007.47
2023-07-31 19:28:00,SystemResetWarning,0835.3,5.01,000.00,032.0,025.6,000.0,039.9,031.3,34.0,0000.0,0022.56,0009.57,0007.43
2023-07-31 19:29:00,SystemResetWarning,0835.3,5.00,000.00,031.8,025.9,000.0,039.9,031.2,34.9,0000.0,0022.60,0009.51,0007.39
2023-07-31 19:30:00,SystemResetWarning,0835.3,4.99,000.00,031.8,026.4,000.0,039.9,031.4,35.4,0000.0,0022.12,0009.42,0007.35
2023-07-31 19:31:00,SystemResetWarning,0835.3,5.02,000.00,031.9,026.8,000.0,039.9,031.5,34.7,0000.0,0022.77,0009.38,0007.32
2023-07-31 19:32:00,SystemResetWarning,0835.3,4.98,000.00,032.0,027.2,000.0,039.8,031.6,34.4,0000.0,0022.40,0009.39,0007.30
2023-07-31 19:33:00,SystemResetWarning,0835.3,5.02,000.00,032.1,027.5,000.0,039.8,031.7,34.5,0000.0,0021.38,0009.33,0007.28
2023-07-31 19:34:00,SystemResetWarning,0835.3,5.00,000.00,032.1,026.9,000.0,039.7,031.7,34.6,0000.0,0019.68,0009.31,0007.21
2023-07-31 19:35:00,SystemResetWarning,0835.3,4.99,000.00,032.1,025.7,000.0,039.6,031.6,33.8,0000.0,0019.32,0009.21,0007.15
2023-07-31 19:36:00,SystemResetWarning,0835.2,5.01,000.00,032.1,025.4,000.0,039.5,031.4,32.9,0000.0,0019.15,0009.08,0007.09
2023-07-31 19:37:00,SystemResetWarning,0835.2,5.00,000.00,031.9,025.6,000.0,039.6,031.2,33.1,0000.0,0019.68,0009.10,0007.08
2023-07-31 19:38:00,SystemResetWarning,0835.1,4.99,000.00,031.8,026.1,000.0,039.6,031.2,33.5,0000.0,0019.75,0009.11,0007.09
2023-07-31 19:39:00,SystemResetWarning,0835.1,5.00,000.00,031.7,026.5,000.0,039.6,031.3,33.5,0000.0,0021.32,0009.16,0007.11
2023-07-31 19:40:00,SystemResetWarning,0835.1,5.01,000.00,031.7,027.0,000.0,039.7,031.4,33.5,0000.0,0020.86,0009.23,0007.15
2023-07-31 19:41:00,SystemResetWarning,0835.1,5.00,000.00,031.7,027.3,000.0,039.7,031.5,33.8,0000.0,0020.77,0009.31,0007.20
2023-07-31 19:42:00,SystemResetWarning,0835.1,5.00,000.00,031.6,027.4,000.0,039.6,031.5,34.3,0000.0,0019.22,0009.32,0007.21
2023-07-31 19:43:00,SystemResetWarning,0835.1,4.98,000.00,031.6,026.3,000.0,039.5,031.4,34.0,0000.0,0019.01,0009.24,0007.18
2023-07-31 19:44:00,SystemResetWarning,0835.1,5.02,000.00,031.5,025.4,000.0,039.3,031.2,33.6,0000.0,0020.24,0009.24,0007.13
2023-07-31 19:45:00,SystemResetWarning,0835.2,5.01,000.00,031.4,025.5,000.0,039.3,031.1,33.9,0000.0,0020.75,0009.13,0007.09
2023-07-31 19:46:00,SystemResetWarning,0835.1,4.99,000.00,031.2,025.8,000.0,039.3,031.0,34.7,0000.0,0020.67,0009.12,0007.07
2023-07-31 19:47:00,SystemResetWarning,0835.1,5.01,000.00,031.2,026.2,000.0,039.3,031.0,34.8,0000.9,0020.59,0009.13,0007.06
2023-07-31 19:48:00,SystemResetWarning,0835.1,5.00,000.00,031.2,026.7,000.0,039.3,031.2,34.4,0001.3,0020.05,0009.05,0007.03
2023-07-31 19:49:00,SystemResetWarning,0835.1,5.00,000.00,031.2,027.1,000.0,039.3,031.3,33.3,0000.8,0020.29,0008.99,0007.00
2023-07-31 19:50:00,SystemResetWarning,0835.0,5.00,000.00,031.2,027.4,000.0,039.3,031.4,31.8,0000.3,0019.06,0008.90,0006.95
2023-07-31 19:51:00,SystemResetWarning,0835.0,4.98,000.00,031.2,026.9,000.0,039.2,031.4,32.2,0000.4,0019.53,0008.84,0006.89
2023-07-31 19:52:00,SystemResetWarning,0835.0,5.01,000.00,031.2,025.7,000.0,039.0,031.2,33.4,0000.5,0019.95,0008.82,0006.84
2023-07-31 19:53:00,SystemResetWarning,0834.9,5.01,000.00,031.1,025.4,000.0,038.9,031.1,33.6,0000.1,0020.00,0008.72,0006.78
2023-07-31 19:54:00,SystemResetWarning,0835.0,4.99,000.00,031.0,025.6,000.0,038.9,030.9,33.4,0001.0,0020.62,0008.71,0006.77
2023-07-31 19:55:00,SystemResetWarning,0835.4,5.00,000.00,030.8,026.0,000.0,039.0,030.9,33.6,0001.6,0019.66,0008.69,0006.78
2023-07-31 19:56:00,SystemResetWarning,0835.5,5.01,000.00,030.8,026.4,000.0,039.0,031.0,33.9,0000.0,0018.31,0008.59,0006.78
2023-07-31 19:57:00,SystemResetWarning,0835.1,4.99,000.00,030.8,026.9,000.0,039.0,031.1,34.6,0000.1,0018.73,0008.55,0006.78
2023-07-31 19:58:00,SystemResetWarning,0835.1,4.99,000.00,030.8,027.2,000.0,039.0,031.2,35.0,0000.3,0019.04,0008.49,0006.79
2023-07-31 19:59:00,SystemResetWarning,0835.0,5.02,000.00,030.9,027.4,000.0,038.9,031.3,33.6,0000.0,0018.89,0008.45,0006.77
